Time,TemperatureF,DewpointF,PressureIn,WindDirection,WindDirectionDegrees,WindSpeedMPH,WindSpeedGustMPH,Humidity,HourlyPrecipIn,Conditions,Clouds,dailyrainin,SoftwareType,DateUTC
2013-09-03 00:01:00,68.9,49.0,25.81,SSE,157,8.4,17.0,49,0.00,,,0.00,Rainwise IP-100,2013-09-03 06:01:00,
2013-09-03 00:06:00,68.6,48.0,25.82,ESE,112,3.0,19.0,49,0.00,,,0.00,Rainwise IP-100,2013-09-03 06:06:00,
2013-09-03 00:11:00,68.3,49.0,25.81,SSW,202,9.1,17.0,50,0.00,,,0.00,Rainwise IP-100,2013-09-03 06:11:00,
2013-09-03 00:16:00,68.1,49.0,25.82,SSE,157,11.2,14.0,50,0.00,,,0.00,Rainwise IP-100,2013-09-03 06:16:00,
2013-09-03 00:21:00,68.0,49.0,25.81,South,180,11.7,17.0,51,0.00,,,0.00,Rainwise IP-100,2013-09-03 06:21:00,
2013-09-03 00:26:00,67.8,49.0,25.81,SSE,157,8.6,14.0,51,0.00,,,0.00,Rainwise IP-100,2013-09-03 06:26:00,
2013-09-03 00:31:00,67.6,49.0,25.82,South,180,4.2,15.0,51,0.00,,,0.00,Rainwise IP-100,2013-09-03 06:31:00,
2013-09-03 00:36:00,67.4,49.0,25.82,SSE,157,9.1,16.0,52,0.00,,,0.00,Rainwise IP-100,2013-09-03 06:36:00,
2013-09-03 00:41:00,67.2,49.0,25.82,SSE,157,12.4,14.0,52,0.00,,,0.00,Rainwise IP-100,2013-09-03 06:41:00,
2013-09-03 00:46:00,67.0,50.0,25.82,SSE,157,5.4,12.0,53,0.00,,,0.00,Rainwise IP-100,2013-09-03 06:46:00,
2013-09-03 00:51:00,66.7,49.0,25.82,SSE,157,11.2,11.2,53,0.00,,,0.00,Rainwise IP-100,2013-09-03 06:51:00,
2013-09-03 00:56:00,66.4,49.0,25.82,SSE,157,6.8,12.0,54,0.00,,,0.00,Rainwise IP-100,2013-09-03 06:56:00,
2013-09-03 01:01:00,66.2,50.0,25.81,ENE,67,4.2,12.0,55,0.00,,,0.00,Rainwise IP-100,2013-09-03 07:01:00,
2013-09-03 01:06:00,66.0,49.0,25.82,SSE,157,6.1,14.0,55,0.00,,,0.00,Rainwise IP-100,2013-09-03 07:06:00,
2013-09-03 01:11:00,65.9,50.0,25.81,SSE,157,7.7,14.0,56,0.00,,,0.00,Rainwise IP-100,2013-09-03 07:11:00,
2013-09-03 01:16:00,65.7,49.0,25.82,ESE,112,3.0,11.0,56,0.00,,,0.00,Rainwise IP-100,2013-09-03 07:16:00,
2013-09-03 01:21:00,65.6,49.0,25.82,SE,135,8.2,9.0,56,0.00,,,0.00,Rainwise IP-100,2013-09-03 07:21:00,
2013-09-03 01:26:00,65.4,50.0,25.82,SSE,157,6.3,11.0,57,0.00,,,0.00,Rainwise IP-100,2013-09-03 07:26:00,
2013-09-03 01:31:00,65.2,49.0,25.82,SSE,157,1.4,11.0,57,0.00,,,0.00,Rainwise IP-100,2013-09-03 07:31:00,
2013-09-03 01:36:00,65.1,50.0,25.82,East,90,4.4,9.0,58,0.00,,,0.00,Rainwise IP-100,2013-09-03 07:36:00,
2013-09-03 01:41:00,64.9,50.0,25.81,SSW,202,5.1,8.0,58,0.00,,,0.00,Rainwise IP-100,2013-09-03 07:41:00,
2013-09-03 01:46:00,64.7,50.0,25.81,SSE,157,6.5,9.0,59,0.00,,,0.00,Rainwise IP-100,2013-09-03 07:46:00,
2013-09-03 01:51:00,64.5,50.0,25.81,SSE,157,7.0,11.0,59,0.00,,,0.00,Rainwise IP-100,2013-09-03 07:51:00,
2013-09-03 01:56:00,64.4,50.0,25.81,SSE,157,7.5,10.0,60,0.00,,,0.00,Rainwise IP-100,2013-09-03 07:56:00,
2013-09-03 02:01:00,64.4,50.0,25.81,SSE,157,4.7,12.0,60,0.00,,,0.00,Rainwise IP-100,2013-09-03 08:01:00,
2013-09-03 02:06:00,64.4,50.0,25.81,SSE,157,6.8,10.0,60,0.00,,,0.00,Rainwise IP-100,2013-09-03 08:06:00,
2013-09-03 02:11:00,64.3,50.0,25.81,SSE,157,6.8,10.0,60,0.00,,,0.00,Rainwise IP-100,2013-09-03 08:11:00,
2013-09-03 02:16:00,64.3,50.0,25.81,SSE,157,2.6,11.0,60,0.00,,,0.00,Rainwise IP-100,2013-09-03 08:16:00,
2013-09-03 02:21:00,64.2,50.0,25.81,ESE,112,6.5,10.0,60,0.00,,,0.00,Rainwise IP-100,2013-09-03 08:21:00,
2013-09-03 02:26:00,64.2,50.0,25.81,South,180,4.9,10.0,61,0.00,,,0.00,Rainwise IP-100,2013-09-03 08:26:00,
2013-09-03 02:31:00,64.2,50.0,25.81,SSE,157,3.7,12.0,61,0.00,,,0.00,Rainwise IP-100,2013-09-03 08:31:00,
2013-09-03 02:36:00,64.2,50.0,25.81,South,180,4.7,10.0,61,0.00,,,0.00,Rainwise IP-100,2013-09-03 08:36:00,
2013-09-03 02:41:00,64.0,50.0,25.81,SSE,157,3.3,12.0,61,0.00,,,0.00,Rainwise IP-100,2013-09-03 08:41:00,
2013-09-03 02:46:00,63.9,50.0,25.81,SSW,202,2.3,12.0,61,0.00,,,0.00,Rainwise IP-100,2013-09-03 08:46:00,
2013-09-03 02:51:00,63.8,50.0,25.81,SSE,157,4.0,11.0,62,0.00,,,0.00,Rainwise IP-100,2013-09-03 08:51:00,
2013-09-03 02:56:00,63.7,50.0,25.81,SE,135,7.2,11.0,62,0.00,,,0.00,Rainwise IP-100,2013-09-03 08:56:00,
2013-09-03 03:01:00,63.7,50.0,25.81,SSE,157,7.0,10.0,62,0.00,,,0.00,Rainwise IP-100,2013-09-03 09:01:00,
2013-09-03 03:06:00,63.6,50.0,25.81,SE,135,5.4,11.0,62,0.00,,,0.00,Rainwise IP-100,2013-09-03 09:06:00,
2013-09-03 03:11:00,63.5,50.0,25.81,SSE,157,4.2,10.0,63,0.00,,,0.00,Rainwise IP-100,2013-09-03 09:11:00,
2013-09-03 03:16:00,63.5,50.0,25.81,SSE,157,6.1,9.0,63,0.00,,,0.00,Rainwise IP-100,2013-09-03 09:16:00,
2013-09-03 03:21:00,63.3,50.0,25.81,SSE,157,7.9,11.0,63,0.00,,,0.00,Rainwise IP-100,2013-09-03 09:21:00,
2013-09-03 03:26:00,63.3,50.0,25.81,SSE,157,4.2,10.0,63,0.00,,,0.00,Rainwise IP-100,2013-09-03 09:26:00,
2013-09-03 03:31:00,63.3,50.0,25.80,SSE,157,4.9,11.0,64,0.00,,,0.00,Rainwise IP-100,2013-09-03 09:31:00,
2013-09-03 03:36:00,63.2,50.0,25.81,South,180,2.1,10.0,64,0.00,,,0.00,Rainwise IP-100,2013-09-03 09:36:00,
2013-09-03 03:41:00,63.0,50.0,25.80,SSE,157,2.3,10.0,64,0.00,,,0.00,Rainwise IP-100,2013-09-03 09:41:00,
2013-09-03 03:46:00,62.9,50.0,25.81,ESE,112,4.7,10.0,64,0.00,,,0.00,Rainwise IP-100,2013-09-03 09:46:00,
2013-09-03 03:51:00,62.9,51.0,25.81,ESE,112,4.9,11.0,65,0.00,,,0.00,Rainwise IP-100,2013-09-03 09:51:00,
2013-09-03 03:56:00,62.8,50.0,25.81,SE,135,8.2,11.0,65,0.00,,,0.00,Rainwise IP-100,2013-09-03 09:56:00,
2013-09-03 04:01:00,62.9,51.0,25.81,SSE,157,7.0,14.0,65,0.00,,,0.00,Rainwise IP-100,2013-09-03 10:01:00,
2013-09-03 04:06:00,62.9,51.0,25.81,SSW,202,4.0,14.0,65,0.00,,,0.00,Rainwise IP-100,2013-09-03 10:06:00,
2013-09-03 04:11:00,62.9,51.0,25.81,ESE,112,4.2,12.0,65,0.00,,,0.00,Rainwise IP-100,2013-09-03 10:11:00,
2013-09-03 04:16:00,62.9,51.0,25.81,SSE,157,7.0,11.0,65,0.00,,,0.00,Rainwise IP-100,2013-09-03 10:16:00,
2013-09-03 04:21:00,62.8,50.0,25.81,SE,135,0.0,11.0,65,0.00,,,0.00,Rainwise IP-100,2013-09-03 10:21:00,
2013-09-03 04:26:00,62.7,50.0,25.81,SSE,157,8.4,11.0,65,0.00,,,0.00,Rainwise IP-100,2013-09-03 10:26:00,
2013-09-03 04:31:00,62.6,50.0,25.81,SE,135,4.4,11.0,65,0.00,,,0.00,Rainwise IP-100,2013-09-03 10:31:00,
2013-09-03 04:36:00,62.5,50.0,25.80,SSE,157,5.8,10.0,65,0.00,,,0.00,Rainwise IP-100,2013-09-03 10:36:00,
2013-09-03 04:41:00,62.5,51.0,25.81,SSE,157,4.0,9.0,66,0.00,,,0.00,Rainwise IP-100,2013-09-03 10:41:00,
2013-09-03 04:46:00,62.4,51.0,25.81,SSE,157,6.8,11.0,66,0.00,,,0.00,Rainwise IP-100,2013-09-03 10:46:00,
2013-09-03 04:51:00,62.3,50.0,25.81,SSE,157,8.2,10.0,66,0.00,,,0.00,Rainwise IP-100,2013-09-03 10:51:00,
2013-09-03 04:56:00,62.2,50.0,25.81,SSE,157,9.3,12.0,66,0.00,,,0.00,Rainwise IP-100,2013-09-03 10:56:00,
2013-09-03 05:01:00,62.1,50.0,25.80,SSE,157,0.0,12.0,66,0.00,,,0.00,Rainwise IP-100,2013-09-03 11:01:00,
2013-09-03 05:06:00,62.0,50.0,25.81,SE,135,2.1,11.0,66,0.00,,,0.00,Rainwise IP-100,2013-09-03 11:06:00,
2013-09-03 05:11:00,61.9,51.0,25.81,SSE,157,4.4,11.0,67,0.00,,,0.00,Rainwise IP-100,2013-09-03 11:11:00,
2013-09-03 05:16:00,61.8,50.0,25.80,SSE,157,4.2,9.0,67,0.00,,,0.00,Rainwise IP-100,2013-09-03 11:16:00,
2013-09-03 05:21:00,61.7,50.0,25.80,SSE,157,7.9,11.0,67,0.00,,,0.00,Rainwise IP-100,2013-09-03 11:21:00,
2013-09-03 05:26:00,61.6,50.0,25.80,SSE,157,4.7,9.0,67,0.00,,,0.00,Rainwise IP-100,2013-09-03 11:26:00,
2013-09-03 05:31:00,61.6,50.0,25.80,SSE,157,7.7,11.0,68,0.00,,,0.00,Rainwise IP-100,2013-09-03 11:31:00,
2013-09-03 05:36:00,61.5,50.0,25.79,ESE,112,3.7,12.0,68,0.00,,,0.00,Rainwise IP-100,2013-09-03 11:36:00,
2013-09-03 05:41:00,61.5,50.0,25.80,SE,135,2.3,11.0,68,0.00,,,0.00,Rainwise IP-100,2013-09-03 11:41:00,
2013-09-03 05:46:00,61.4,50.0,25.80,SSE,157,2.6,9.0,68,0.00,,,0.00,Rainwise IP-100,2013-09-03 11:46:00,
2013-09-03 05:51:00,61.3,50.0,25.80,SE,135,4.2,9.0,68,0.00,,,0.00,Rainwise IP-100,2013-09-03 11:51:00,
2013-09-03 05:56:00,61.3,50.0,25.80,SSE,157,4.9,11.0,68,0.00,,,0.00,Rainwise IP-100,2013-09-03 11:56:00,
2013-09-03 06:01:00,61.2,50.0,25.81,South,180,7.7,11.0,69,0.00,,,0.00,Rainwise IP-100,2013-09-03 12:01:00,
2013-09-03 06:06:00,61.0,50.0,25.80,SSE,157,10.0,11.0,69,0.00,,,0.00,Rainwise IP-100,2013-09-03 12:06:00,
2013-09-03 06:11:00,60.9,50.0,25.81,SSE,157,4.9,10.0,69,0.00,,,0.00,Rainwise IP-100,2013-09-03 12:11:00,
2013-09-03 06:16:00,60.8,50.0,25.81,South,180,2.6,7.0,69,0.00,,,0.00,Rainwise IP-100,2013-09-03 12:16:00,
2013-09-03 06:21:00,60.7,50.0,25.81,SSE,157,3.5,9.0,70,0.00,,,0.00,Rainwise IP-100,2013-09-03 12:21:00,
2013-09-03 06:26:00,60.5,50.0,25.81,SSE,157,4.2,10.0,70,0.00,,,0.00,Rainwise IP-100,2013-09-03 12:26:00,
2013-09-03 06:31:00,60.4,50.0,25.81,SSE,157,4.7,7.0,70,0.00,,,0.00,Rainwise IP-100,2013-09-03 12:31:00,
2013-09-03 06:36:00,60.4,51.0,25.81,SSE,157,5.1,11.0,71,0.00,,,0.00,Rainwise IP-100,2013-09-03 12:36:00,
2013-09-03 06:41:00,60.5,50.0,25.81,SSE,157,6.1,11.0,70,0.00,,,0.00,Rainwise IP-100,2013-09-03 12:41:00,
2013-09-03 06:46:00,60.7,50.0,25.81,SSE,157,5.6,12.0,70,0.00,,,0.00,Rainwise IP-100,2013-09-03 12:46:00,
2013-09-03 06:51:00,60.8,50.0,25.81,SSE,157,8.9,12.0,70,0.00,,,0.00,Rainwise IP-100,2013-09-03 12:51:00,
2013-09-03 06:56:00,61.1,51.0,25.81,SE,135,6.1,12.0,70,0.00,,,0.00,Rainwise IP-100,2013-09-03 12:56:00,
2013-09-03 07:01:00,61.3,50.0,25.81,SSE,157,4.9,11.0,69,0.00,,,0.00,Rainwise IP-100,2013-09-03 13:01:00,
2013-09-03 07:06:00,61.6,51.0,25.82,SSW,202,6.8,11.0,69,0.00,,,0.00,Rainwise IP-100,2013-09-03 13:06:00,
2013-09-03 07:11:00,61.8,50.0,25.82,SSE,157,7.7,13.0,68,0.00,,,0.00,Rainwise IP-100,2013-09-03 13:11:00,
2013-09-03 07:16:00,62.2,51.0,25.82,South,180,6.8,12.0,67,0.00,,,0.00,Rainwise IP-100,2013-09-03 13:16:00,
2013-09-03 07:21:00,62.5,51.0,25.82,SSE,157,7.2,12.0,67,0.00,,,0.00,Rainwise IP-100,2013-09-03 13:21:00,
2013-09-03 07:26:00,62.8,51.0,25.81,South,180,6.8,14.0,66,0.00,,,0.00,Rainwise IP-100,2013-09-03 13:26:00,
2013-09-03 07:31:00,63.1,51.0,25.82,SSE,157,7.5,12.0,66,0.00,,,0.00,Rainwise IP-100,2013-09-03 13:31:00,
2013-09-03 07:36:00,63.5,51.0,25.82,SSE,157,4.9,14.0,65,0.00,,,0.00,Rainwise IP-100,2013-09-03 13:36:00,
2013-09-03 07:41:00,63.8,51.0,25.82,SSE,157,9.6,11.0,64,0.00,,,0.00,Rainwise IP-100,2013-09-03 13:41:00,
2013-09-03 07:46:00,64.1,51.0,25.82,South,180,6.5,12.0,64,0.00,,,0.00,Rainwise IP-100,2013-09-03 13:46:00,
2013-09-03 07:51:00,64.4,51.0,25.82,SSE,157,4.9,14.0,63,0.00,,,0.00,Rainwise IP-100,2013-09-03 13:51:00,
2013-09-03 07:56:00,64.8,51.0,25.82,South,180,2.8,11.0,63,0.00,,,0.00,Rainwise IP-100,2013-09-03 13:56:00,
2013-09-03 08:01:00,65.1,52.0,25.82,SSE,157,6.8,12.0,63,0.00,,,0.00,Rainwise IP-100,2013-09-03 14:01:00,
2013-09-03 08:06:00,65.4,52.0,25.82,South,180,6.5,12.0,62,0.00,,,0.00,Rainwise IP-100,2013-09-03 14:06:00,
2013-09-03 08:11:00,65.7,52.0,25.82,SE,135,3.7,11.0,62,0.00,,,0.00,Rainwise IP-100,2013-09-03 14:11:00,
2013-09-03 08:16:00,66.2,53.0,25.82,SSE,157,6.8,9.0,61,0.00,,,0.00,Rainwise IP-100,2013-09-03 14:16:00,
2013-09-03 08:21:00,66.6,53.0,25.82,SSW,202,4.0,8.0,61,0.00,,,0.00,Rainwise IP-100,2013-09-03 14:21:00,
2013-09-03 08:26:00,67.0,53.0,25.82,SSE,157,4.2,6.0,60,0.00,,,0.00,Rainwise IP-100,2013-09-03 14:26:00,
2013-09-03 08:31:00,67.5,53.0,25.83,SSE,157,5.1,7.0,60,0.00,,,0.00,Rainwise IP-100,2013-09-03 14:31:00,
2013-09-03 08:36:00,68.0,53.0,25.83,South,180,1.4,6.0,59,0.00,,,0.00,Rainwise IP-100,2013-09-03 14:36:00,
2013-09-03 08:41:00,68.5,53.0,25.82,SSW,202,1.9,4.0,59,0.00,,,0.00,Rainwise IP-100,2013-09-03 14:41:00,
2013-09-03 08:46:00,69.1,53.0,25.82,SSE,157,5.6,6.0,58,0.00,,,0.00,Rainwise IP-100,2013-09-03 14:46:00,
2013-09-03 08:51:00,69.2,54.0,25.82,SSW,202,4.2,7.0,58,0.00,,,0.00,Rainwise IP-100,2013-09-03 14:51:00,
2013-09-03 08:56:00,69.6,54.0,25.83,SSE,157,0.0,5.0,57,0.00,,,0.00,Rainwise IP-100,2013-09-03 14:56:00,
2013-09-03 09:01:00,70.4,54.0,25.82,South,180,4.4,6.0,56,0.00,,,0.00,Rainwise IP-100,2013-09-03 15:01:00,
2013-09-03 09:06:00,70.8,53.0,25.82,SSE,157,8.4,10.0,55,0.00,,,0.00,Rainwise IP-100,2013-09-03 15:06:00,
2013-09-03 09:11:00,70.9,54.0,25.83,South,180,2.6,10.0,56,0.00,,,0.00,Rainwise IP-100,2013-09-03 15:11:00,
2013-09-03 09:16:00,71.3,54.0,25.82,South,180,7.2,8.0,56,0.00,,,0.00,Rainwise IP-100,2013-09-03 15:16:00,
2013-09-03 09:21:00,71.7,54.0,25.82,South,180,8.4,8.4,55,0.00,,,0.00,Rainwise IP-100,2013-09-03 15:21:00,
2013-09-03 09:26:00,72.2,55.0,25.82,SSE,157,4.7,8.0,55,0.00,,,0.00,Rainwise IP-100,2013-09-03 15:26:00,
2013-09-03 09:31:00,72.6,55.0,25.82,South,180,4.9,10.0,54,0.00,,,0.00,Rainwise IP-100,2013-09-03 15:31:00,
2013-09-03 09:36:00,73.1,55.0,25.82,SSE,157,5.4,8.0,54,0.00,,,0.00,Rainwise IP-100,2013-09-03 15:36:00,
2013-09-03 09:41:00,73.5,56.0,25.82,SSW,202,2.6,9.0,54,0.00,,,0.00,Rainwise IP-100,2013-09-03 15:41:00,
2013-09-03 09:46:00,73.9,56.0,25.82,SW,225,2.8,8.0,53,0.00,,,0.00,Rainwise IP-100,2013-09-03 15:46:00,
2013-09-03 09:51:00,74.6,56.0,25.82,South,180,6.3,11.0,53,0.00,,,0.00,Rainwise IP-100,2013-09-03 15:51:00,
2013-09-03 09:56:00,75.2,56.0,25.82,SSW,202,7.0,11.0,52,0.00,,,0.00,Rainwise IP-100,2013-09-03 15:56:00,
2013-09-03 10:01:00,75.8,56.0,25.82,SSW,202,4.7,9.0,51,0.00,,,0.00,Rainwise IP-100,2013-09-03 16:01:00,
2013-09-03 10:06:00,76.1,56.0,25.82,SSE,157,5.1,10.0,51,0.00,,,0.00,Rainwise IP-100,2013-09-03 16:06:00,
2013-09-03 10:11:00,76.3,56.0,25.82,SSE,157,9.1,9.1,51,0.00,,,0.00,Rainwise IP-100,2013-09-03 16:11:00,
2013-09-03 10:16:00,76.9,57.0,25.82,South,180,4.9,11.0,50,0.00,,,0.00,Rainwise IP-100,2013-09-03 16:16:00,
2013-09-03 10:21:00,77.6,57.0,25.82,SSE,157,12.1,12.1,50,0.00,,,0.00,Rainwise IP-100,2013-09-03 16:21:00,
2013-09-03 10:26:00,77.8,57.0,25.82,South,180,5.8,13.0,49,0.00,,,0.00,Rainwise IP-100,2013-09-03 16:26:00,
2013-09-03 10:31:00,77.8,57.0,25.82,South,180,6.5,13.0,49,0.00,,,0.00,Rainwise IP-100,2013-09-03 16:31:00,
2013-09-03 10:36:00,78.3,57.0,25.82,SSE,157,6.5,10.0,49,0.00,,,0.00,Rainwise IP-100,2013-09-03 16:36:00,
2013-09-03 10:41:00,78.8,57.0,25.82,SSE,157,5.1,14.0,48,0.00,,,0.00,Rainwise IP-100,2013-09-03 16:41:00,
2013-09-03 10:46:00,78.9,57.0,25.82,SSW,202,7.2,15.0,48,0.00,,,0.00,Rainwise IP-100,2013-09-03 16:46:00,
2013-09-03 10:51:00,79.3,57.0,25.82,South,180,4.0,15.0,47,0.00,,,0.00,Rainwise IP-100,2013-09-03 16:51:00,
2013-09-03 10:56:00,79.9,57.0,25.82,SSE,157,11.0,12.0,47,0.00,,,0.00,Rainwise IP-100,2013-09-03 16:56:00,
2013-09-03 11:01:00,80.3,57.0,25.82,SSE,157,9.3,13.0,46,0.00,,,0.00,Rainwise IP-100,2013-09-03 17:01:00,
2013-09-03 11:06:00,80.7,57.0,25.82,SSE,157,6.3,11.0,45,0.00,,,0.00,Rainwise IP-100,2013-09-03 17:06:00,
2013-09-03 11:11:00,81.2,58.0,25.82,South,180,11.7,12.0,45,0.00,,,0.00,Rainwise IP-100,2013-09-03 17:11:00,
2013-09-03 11:16:00,81.2,58.0,25.82,South,180,7.9,12.0,45,0.00,,,0.00,Rainwise IP-100,2013-09-03 17:16:00,
2013-09-03 11:21:00,81.5,58.0,25.81,SE,135,2.1,11.0,45,0.00,,,0.00,Rainwise IP-100,2013-09-03 17:21:00,
2013-09-03 11:26:00,82.6,58.0,25.82,South,180,1.2,9.0,44,0.00,,,0.00,Rainwise IP-100,2013-09-03 17:26:00,
2013-09-03 11:31:00,83.1,59.0,25.81,SSE,157,2.6,14.0,44,0.00,,,0.00,Rainwise IP-100,2013-09-03 17:31:00,
2013-09-03 11:36:00,83.2,58.0,25.82,SSE,157,4.9,10.0,43,0.00,,,0.00,Rainwise IP-100,2013-09-03 17:36:00,
2013-09-03 11:41:00,83.1,58.0,25.82,SSE,157,1.9,12.0,43,0.00,,,0.00,Rainwise IP-100,2013-09-03 17:41:00,
2013-09-03 11:46:00,83.1,58.0,25.81,SE,135,8.4,16.0,43,0.00,,,0.00,Rainwise IP-100,2013-09-03 17:46:00,
2013-09-03 11:51:00,83.4,59.0,25.81,SSE,157,10.0,14.0,43,0.00,,,0.00,Rainwise IP-100,2013-09-03 17:51:00,
2013-09-03 11:56:00,83.7,58.0,25.81,SSE,157,2.3,14.0,42,0.00,,,0.00,Rainwise IP-100,2013-09-03 17:56:00,
2013-09-03 12:01:00,84.0,59.0,25.81,SSE,157,6.5,18.0,42,0.00,,,0.00,Rainwise IP-100,2013-09-03 18:01:00,
2013-09-03 12:06:00,84.1,59.0,25.81,SE,135,6.5,13.0,42,0.00,,,0.00,Rainwise IP-100,2013-09-03 18:06:00,
2013-09-03 12:11:00,83.9,59.0,25.81,ESE,112,8.6,16.0,42,0.00,,,0.00,Rainwise IP-100,2013-09-03 18:11:00,
2013-09-03 12:16:00,84.1,59.0,25.81,South,180,1.2,15.0,42,0.00,,,0.00,Rainwise IP-100,2013-09-03 18:16:00,
2013-09-03 12:21:00,84.3,59.0,25.80,SE,135,6.3,16.0,42,0.00,,,0.00,Rainwise IP-100,2013-09-03 18:21:00,
2013-09-03 12:26:00,84.3,58.0,25.80,SSE,157,2.6,14.0,41,0.00,,,0.00,Rainwise IP-100,2013-09-03 18:26:00,
2013-09-03 12:31:00,84.4,59.0,25.80,SSE,157,2.1,12.0,42,0.00,,,0.00,Rainwise IP-100,2013-09-03 18:31:00,
2013-09-03 12:36:00,84.8,58.0,25.80,ESE,112,7.5,11.0,41,0.00,,,0.00,Rainwise IP-100,2013-09-03 18:36:00,
2013-09-03 12:41:00,85.5,59.0,25.81,ESE,112,5.8,10.0,41,0.00,,,0.00,Rainwise IP-100,2013-09-03 18:41:00,
2013-09-03 12:46:00,86.0,59.0,25.80,ENE,67,0.0,16.0,40,0.00,,,0.00,Rainwise IP-100,2013-09-03 18:46:00,
2013-09-03 12:51:00,86.3,58.0,25.80,SSE,157,5.8,13.0,39,0.00,,,0.00,Rainwise IP-100,2013-09-03 18:51:00,
2013-09-03 12:56:00,86.6,59.0,25.80,SSE,157,7.9,14.0,39,0.00,,,0.00,Rainwise IP-100,2013-09-03 18:56:00,
2013-09-03 13:01:00,86.9,58.0,25.80,SSE,157,4.4,15.0,38,0.00,,,0.00,Rainwise IP-100,2013-09-03 19:01:00,
2013-09-03 13:06:00,87.2,57.0,25.79,SSW,202,5.1,14.0,37,0.00,,,0.00,Rainwise IP-100,2013-09-03 19:06:00,
2013-09-03 13:11:00,87.6,58.0,25.79,South,180,11.7,16.0,37,0.00,,,0.00,Rainwise IP-100,2013-09-03 19:11:00,
2013-09-03 13:16:00,87.9,59.0,25.79,SSE,157,4.4,14.0,37,0.00,,,0.00,Rainwise IP-100,2013-09-03 19:16:00,
2013-09-03 13:21:00,87.9,57.0,25.79,South,180,14.0,17.0,36,0.00,,,0.00,Rainwise IP-100,2013-09-03 19:21:00,
2013-09-03 13:26:00,88.0,57.0,25.79,SSE,157,6.8,17.0,36,0.00,,,0.00,Rainwise IP-100,2013-09-03 19:26:00,
2013-09-03 13:31:00,88.3,58.0,25.78,ESE,112,6.1,15.0,36,0.00,,,0.00,Rainwise IP-100,2013-09-03 19:31:00,
2013-09-03 13:36:00,88.5,57.0,25.79,SSE,157,5.6,10.0,35,0.00,,,0.00,Rainwise IP-100,2013-09-03 19:36:00,
2013-09-03 13:41:00,89.0,57.0,25.79,SW,225,5.8,16.0,34,0.00,,,0.00,Rainwise IP-100,2013-09-03 19:41:00,
2013-09-03 13:42:00,89.0,57.0,25.79,SSE,157,3.5,14.0,34,0.00,,,0.00,Rainwise IP-100,2013-09-03 19:42:00,
2013-09-03 13:47:00,89.4,56.0,25.78,SSE,157,7.0,17.0,32,0.00,,,0.00,Rainwise IP-100,2013-09-03 19:47:00,
2013-09-03 13:52:00,89.2,55.0,25.78,SSE,157,16.6,16.6,32,0.00,,,0.00,Rainwise IP-100,2013-09-03 19:52:00,
2013-09-03 13:57:00,89.1,55.0,25.78,SSW,202,13.5,17.0,32,0.00,,,0.00,Rainwise IP-100,2013-09-03 19:57:00,
2013-09-03 14:02:00,89.3,55.0,25.78,SSE,157,7.2,17.0,32,0.00,,,0.00,Rainwise IP-100,2013-09-03 20:02:00,
2013-09-03 14:07:00,89.9,54.0,25.78,SSW,202,8.9,10.0,30,0.00,,,0.00,Rainwise IP-100,2013-09-03 20:07:00,
2013-09-03 14:12:00,90.4,54.0,25.77,SSW,202,9.6,15.0,30,0.00,,,0.00,Rainwise IP-100,2013-09-03 20:12:00,
2013-09-03 14:17:00,90.5,55.0,25.77,SSW,202,13.1,18.0,30,0.00,,,0.00,Rainwise IP-100,2013-09-03 20:17:00,
2013-09-03 14:22:00,90.4,54.0,25.77,South,180,7.2,15.0,29,0.00,,,0.00,Rainwise IP-100,2013-09-03 20:22:00,
2013-09-03 14:27:00,90.4,53.0,25.77,SSE,157,8.9,12.0,28,0.00,,,0.00,Rainwise IP-100,2013-09-03 20:27:00,
2013-09-03 14:32:00,90.8,53.0,25.76,WSW,247,3.7,11.0,28,0.00,,,0.00,Rainwise IP-100,2013-09-03 20:32:00,
2013-09-03 14:37:00,91.0,54.0,25.76,South,180,12.4,13.0,29,0.00,,,0.00,Rainwise IP-100,2013-09-03 20:37:00,
2013-09-03 14:42:00,90.9,53.0,25.77,SSW,202,5.1,14.0,28,0.00,,,0.00,Rainwise IP-100,2013-09-03 20:42:00,
2013-09-03 14:47:00,90.6,52.0,25.76,SSE,157,1.2,13.0,27,0.00,,,0.00,Rainwise IP-100,2013-09-03 20:47:00,
2013-09-03 14:52:00,91.1,53.0,25.76,SSE,157,6.1,12.0,27,0.00,,,0.00,Rainwise IP-100,2013-09-03 20:52:00,
2013-09-03 14:57:00,91.4,53.0,25.76,South,180,8.9,12.0,27,0.00,,,0.00,Rainwise IP-100,2013-09-03 20:57:00,
2013-09-03 15:02:00,91.2,51.0,25.76,SE,135,4.9,10.0,26,0.00,,,0.00,Rainwise IP-100,2013-09-03 21:02:00,
2013-09-03 15:07:00,91.5,50.0,25.76,SSE,157,7.7,12.0,25,0.00,,,0.00,Rainwise IP-100,2013-09-03 21:07:00,
2013-09-03 15:12:00,91.6,52.0,25.75,ESE,112,4.9,11.0,26,0.00,,,0.00,Rainwise IP-100,2013-09-03 21:12:00,
2013-09-03 15:17:00,91.8,52.0,25.75,SSE,157,10.5,12.0,26,0.00,,,0.00,Rainwise IP-100,2013-09-03 21:17:00,
2013-09-03 15:22:00,92.2,53.0,25.76,SSE,157,12.6,14.0,26,0.00,,,0.00,Rainwise IP-100,2013-09-03 21:22:00,
2013-09-03 15:27:00,92.0,51.0,25.76,SSW,202,4.2,14.0,25,0.00,,,0.00,Rainwise IP-100,2013-09-03 21:27:00,
2013-09-03 15:32:00,91.8,52.0,25.76,SSW,202,4.2,8.0,26,0.00,,,0.00,Rainwise IP-100,2013-09-03 21:32:00,
2013-09-03 15:37:00,92.1,52.0,25.75,South,180,4.7,11.0,26,0.00,,,0.00,Rainwise IP-100,2013-09-03 21:37:00,
2013-09-03 15:42:00,92.7,52.0,25.76,East,90,1.9,8.0,25,0.00,,,0.00,Rainwise IP-100,2013-09-03 21:42:00,
2013-09-03 15:47:00,92.8,52.0,25.75,ESE,112,6.1,15.0,25,0.00,,,0.00,Rainwise IP-100,2013-09-03 21:47:00,
2013-09-03 15:52:00,92.4,51.0,25.75,SE,135,4.4,11.0,25,0.00,,,0.00,Rainwise IP-100,2013-09-03 21:52:00,
2013-09-03 15:57:00,92.1,51.0,25.75,ESE,112,10.7,12.0,25,0.00,,,0.00,Rainwise IP-100,2013-09-03 21:57:00,
2013-09-03 16:02:00,92.3,51.0,25.75,SSE,157,11.0,12.0,25,0.00,,,0.00,Rainwise IP-100,2013-09-03 22:02:00,
2013-09-03 16:07:00,92.5,52.0,25.75,South,180,8.4,12.0,25,0.00,,,0.00,Rainwise IP-100,2013-09-03 22:07:00,
2013-09-03 16:12:00,92.5,52.0,25.75,SSE,157,4.4,11.0,25,0.00,,,0.00,Rainwise IP-100,2013-09-03 22:12:00,
2013-09-03 16:17:00,92.4,50.0,25.75,SSE,157,4.7,7.0,24,0.00,,,0.00,Rainwise IP-100,2013-09-03 22:17:00,
2013-09-03 16:22:00,92.5,50.0,25.75,SSE,157,9.1,16.0,24,0.00,,,0.00,Rainwise IP-100,2013-09-03 22:22:00,
2013-09-03 16:27:00,92.4,50.0,25.74,SSE,157,3.7,13.0,24,0.00,,,0.00,Rainwise IP-100,2013-09-03 22:27:00,
2013-09-03 16:32:00,92.6,50.0,25.75,SSE,157,6.5,7.0,24,0.00,,,0.00,Rainwise IP-100,2013-09-03 22:32:00,
2013-09-03 16:37:00,92.7,50.0,25.75,South,180,0.0,10.0,24,0.00,,,0.00,Rainwise IP-100,2013-09-03 22:37:00,
2013-09-03 16:42:00,92.6,50.0,25.74,SSE,157,4.7,12.0,24,0.00,,,0.00,Rainwise IP-100,2013-09-03 22:42:00,
2013-09-03 16:47:00,92.5,50.0,25.75,ESE,112,5.8,11.0,24,0.00,,,0.00,Rainwise IP-100,2013-09-03 22:47:00,
2013-09-03 16:52:00,92.5,50.0,25.75,ESE,112,7.0,10.0,24,0.00,,,0.00,Rainwise IP-100,2013-09-03 22:52:00,
2013-09-03 16:57:00,92.7,50.0,25.75,ESE,112,6.8,13.0,24,0.00,,,0.00,Rainwise IP-100,2013-09-03 22:57:00,
2013-09-03 17:02:00,92.6,52.0,25.75,SE,135,7.2,9.0,25,0.00,,,0.00,Rainwise IP-100,2013-09-03 23:02:00,
2013-09-03 17:07:00,92.5,52.0,25.75,SSE,157,8.4,15.0,25,0.00,,,0.00,Rainwise IP-100,2013-09-03 23:07:00,
2013-09-03 17:12:00,92.3,50.0,25.74,SE,135,4.4,13.0,24,0.00,,,0.00,Rainwise IP-100,2013-09-03 23:12:00,
2013-09-03 17:17:00,92.3,51.0,25.74,SSE,157,4.0,8.0,25,0.00,,,0.00,Rainwise IP-100,2013-09-03 23:17:00,
2013-09-03 17:22:00,92.3,51.0,25.74,SE,135,5.8,14.0,25,0.00,,,0.00,Rainwise IP-100,2013-09-03 23:22:00,
2013-09-03 17:27:00,92.4,53.0,25.75,SSE,157,7.5,12.0,26,0.00,,,0.00,Rainwise IP-100,2013-09-03 23:27:00,
2013-09-03 17:32:00,92.5,53.0,25.75,SSE,157,3.0,11.0,26,0.00,,,0.00,Rainwise IP-100,2013-09-03 23:32:00,
2013-09-03 17:37:00,92.5,53.0,25.75,SE,135,7.5,12.0,26,0.00,,,0.00,Rainwise IP-100,2013-09-03 23:37:00,
2013-09-03 17:42:00,92.3,53.0,25.75,SSE,157,4.7,13.0,26,0.00,,,0.00,Rainwise IP-100,2013-09-03 23:42:00,
2013-09-03 17:47:00,92.1,52.0,25.75,ESE,112,8.6,9.0,26,0.00,,,0.00,Rainwise IP-100,2013-09-03 23:47:00,
2013-09-03 17:52:00,91.9,52.0,25.75,SE,135,1.9,16.0,26,0.00,,,0.00,Rainwise IP-100,2013-09-03 23:52:00,
2013-09-03 17:57:00,91.6,53.0,25.75,SSE,157,5.6,13.0,27,0.00,,,0.00,Rainwise IP-100,2013-09-03 23:57:00,
2013-09-03 18:02:00,91.5,53.0,25.74,SSE,157,2.8,11.0,27,0.00,,,0.00,Rainwise IP-100,2013-09-04 00:02:00,
2013-09-03 18:07:00,91.5,53.0,25.74,SSE,157,4.0,12.0,27,0.00,,,0.00,Rainwise IP-100,2013-09-04 00:07:00,
2013-09-03 18:12:00,91.4,53.0,25.75,SSE,157,1.6,13.0,27,0.00,,,0.00,Rainwise IP-100,2013-09-04 00:12:00,
2013-09-03 18:17:00,91.1,53.0,25.75,SE,135,2.6,10.0,27,0.00,,,0.00,Rainwise IP-100,2013-09-04 00:17:00,
2013-09-03 18:22:00,91.0,53.0,25.74,SE,135,6.5,12.0,27,0.00,,,0.00,Rainwise IP-100,2013-09-04 00:22:00,
2013-09-03 18:27:00,90.8,52.0,25.74,ESE,112,10.5,11.0,27,0.00,,,0.00,Rainwise IP-100,2013-09-04 00:27:00,
2013-09-03 18:32:00,90.6,52.0,25.74,ESE,112,7.7,11.0,27,0.00,,,0.00,Rainwise IP-100,2013-09-04 00:32:00,
2013-09-03 18:37:00,90.4,52.0,25.74,ENE,67,4.2,7.0,27,0.00,,,0.00,Rainwise IP-100,2013-09-04 00:37:00,
2013-09-03 18:42:00,90.2,53.0,25.75,SSW,202,4.0,8.0,28,0.00,,,0.00,Rainwise IP-100,2013-09-04 00:42:00,
2013-09-03 18:47:00,89.7,53.0,25.74,SSE,157,1.2,8.0,29,0.00,,,0.00,Rainwise IP-100,2013-09-04 00:47:00,
2013-09-03 18:52:00,89.2,53.0,25.75,ESE,112,2.8,7.0,29,0.00,,,0.00,Rainwise IP-100,2013-09-04 00:52:00,
2013-09-03 18:57:00,88.5,53.0,25.75,SSE,157,1.9,9.0,30,0.00,,,0.00,Rainwise IP-100,2013-09-04 00:57:00,
2013-09-03 19:02:00,88.0,54.0,25.75,ESE,112,3.7,7.0,31,0.00,,,0.00,Rainwise IP-100,2013-09-04 01:02:00,
2013-09-03 19:07:00,87.4,53.0,25.75,SSE,157,3.0,8.0,31,0.00,,,0.00,Rainwise IP-100,2013-09-04 01:07:00,
2013-09-03 19:12:00,86.8,53.0,25.75,SE,135,4.4,7.0,32,0.00,,,0.00,Rainwise IP-100,2013-09-04 01:12:00,
2013-09-03 19:17:00,86.2,54.0,25.76,ESE,112,3.7,7.0,33,0.00,,,0.00,Rainwise IP-100,2013-09-04 01:17:00,
2013-09-03 19:22:00,85.7,54.0,25.76,ESE,112,5.4,8.0,34,0.00,,,0.00,Rainwise IP-100,2013-09-04 01:22:00,
2013-09-03 19:27:00,85.2,54.0,25.75,ESE,112,5.6,8.0,35,0.00,,,0.00,Rainwise IP-100,2013-09-04 01:27:00,
2013-09-03 19:32:00,84.7,54.0,25.75,ESE,112,2.8,7.0,36,0.00,,,0.00,Rainwise IP-100,2013-09-04 01:32:00,
2013-09-03 19:37:00,84.2,54.0,25.75,SE,135,3.5,8.0,36,0.00,,,0.00,Rainwise IP-100,2013-09-04 01:37:00,
2013-09-03 19:42:00,83.8,54.0,25.75,ESE,112,4.7,8.0,37,0.00,,,0.00,Rainwise IP-100,2013-09-04 01:42:00,
2013-09-03 19:47:00,83.2,55.0,25.75,ESE,112,4.7,9.0,38,0.00,,,0.00,Rainwise IP-100,2013-09-04 01:47:00,
2013-09-03 19:52:00,82.7,54.0,25.75,SE,135,5.1,8.0,38,0.00,,,0.00,Rainwise IP-100,2013-09-04 01:52:00,
2013-09-03 19:57:00,82.2,54.0,25.75,ESE,112,2.6,8.0,39,0.00,,,0.00,Rainwise IP-100,2013-09-04 01:57:00,
2013-09-03 20:02:00,81.6,54.0,25.75,ESE,112,5.4,8.0,39,0.00,,,0.00,Rainwise IP-100,2013-09-04 02:02:00,
2013-09-03 20:07:00,81.2,54.0,25.75,SE,135,3.7,9.0,40,0.00,,,0.00,Rainwise IP-100,2013-09-04 02:07:00,
2013-09-03 20:12:00,80.8,54.0,25.76,ESE,112,4.9,8.0,40,0.00,,,0.00,Rainwise IP-100,2013-09-04 02:12:00,
2013-09-03 20:17:00,80.4,54.0,25.76,ESE,112,4.2,7.0,41,0.00,,,0.00,Rainwise IP-100,2013-09-04 02:17:00,
2013-09-03 20:22:00,80.0,54.0,25.76,ESE,112,4.9,7.0,41,0.00,,,0.00,Rainwise IP-100,2013-09-04 02:22:00,
2013-09-03 20:27:00,79.7,54.0,25.76,ESE,112,1.4,8.0,41,0.00,,,0.00,Rainwise IP-100,2013-09-04 02:27:00,
2013-09-03 20:32:00,79.4,54.0,25.76,SE,135,2.1,8.0,42,0.00,,,0.00,Rainwise IP-100,2013-09-04 02:32:00,
2013-09-03 20:37:00,79.1,54.0,25.76,ESE,112,3.7,8.0,43,0.00,,,0.00,Rainwise IP-100,2013-09-04 02:37:00,
2013-09-03 20:42:00,78.9,54.0,25.76,SE,135,4.7,9.0,43,0.00,,,0.00,Rainwise IP-100,2013-09-04 02:42:00,
2013-09-03 20:47:00,78.9,55.0,25.76,South,180,1.9,6.0,44,0.00,,,0.00,Rainwise IP-100,2013-09-04 02:47:00,
2013-09-03 20:52:00,78.8,55.0,25.77,SE,135,5.4,9.0,44,0.00,,,0.00,Rainwise IP-100,2013-09-04 02:52:00,
2013-09-03 20:57:00,78.7,56.0,25.77,ESE,112,5.6,9.0,45,0.00,,,0.00,Rainwise IP-100,2013-09-04 02:57:00,
2013-09-03 21:02:00,78.6,56.0,25.77,SE,135,4.2,8.0,45,0.00,,,0.00,Rainwise IP-100,2013-09-04 03:02:00,
2013-09-03 21:07:00,78.2,56.0,25.78,SE,135,5.6,8.0,46,0.00,,,0.00,Rainwise IP-100,2013-09-04 03:07:00,
2013-09-03 21:12:00,77.9,56.0,25.77,ESE,112,3.3,8.0,46,0.00,,,0.00,Rainwise IP-100,2013-09-04 03:12:00,
2013-09-03 21:17:00,77.6,56.0,25.77,South,180,2.6,8.0,47,0.00,,,0.00,Rainwise IP-100,2013-09-04 03:17:00,
2013-09-03 21:22:00,77.2,56.0,25.78,SSE,157,6.1,9.0,48,0.00,,,0.00,Rainwise IP-100,2013-09-04 03:22:00,
2013-09-03 21:27:00,77.0,56.0,25.78,ESE,112,1.6,9.0,49,0.00,,,0.00,Rainwise IP-100,2013-09-04 03:27:00,
2013-09-03 21:32:00,76.8,56.0,25.79,South,180,4.4,9.0,49,0.00,,,0.00,Rainwise IP-100,2013-09-04 03:32:00,
2013-09-03 21:37:00,76.7,57.0,25.78,ESE,112,3.3,8.0,50,0.00,,,0.00,Rainwise IP-100,2013-09-04 03:37:00,
2013-09-03 21:42:00,76.5,57.0,25.78,South,180,9.1,9.1,51,0.00,,,0.00,Rainwise IP-100,2013-09-04 03:42:00,
2013-09-03 21:47:00,76.3,56.0,25.79,ESE,112,7.7,9.0,51,0.00,,,0.00,Rainwise IP-100,2013-09-04 03:47:00,
2013-09-03 21:52:00,76.1,56.0,25.79,SE,135,5.6,8.0,51,0.00,,,0.00,Rainwise IP-100,2013-09-04 03:52:00,
2013-09-03 21:57:00,75.8,56.0,25.79,ESE,112,7.7,9.0,52,0.00,,,0.00,Rainwise IP-100,2013-09-04 03:57:00,
2013-09-03 22:01:00,75.7,56.0,25.79,South,180,4.0,9.0,52,0.00,,,0.00,Rainwise IP-100,2013-09-04 04:01:00,
2013-09-03 22:06:00,75.5,57.0,25.79,ESE,112,4.4,8.0,53,0.00,,,0.00,Rainwise IP-100,2013-09-04 04:06:00,
2013-09-03 22:11:00,75.3,57.0,25.79,ESE,112,6.1,9.0,53,0.00,,,0.00,Rainwise IP-100,2013-09-04 04:11:00,
2013-09-03 22:16:00,75.1,57.0,25.79,ESE,112,7.5,9.0,54,0.00,,,0.00,Rainwise IP-100,2013-09-04 04:16:00,
2013-09-03 22:21:00,75.0,57.0,25.79,SE,135,4.9,9.0,54,0.00,,,0.00,Rainwise IP-100,2013-09-04 04:21:00,
2013-09-03 22:26:00,74.8,57.0,25.79,SE,135,5.1,10.0,54,0.00,,,0.00,Rainwise IP-100,2013-09-04 04:26:00,
2013-09-03 22:31:00,74.8,57.0,25.79,SSE,157,3.5,8.0,54,0.00,,,0.00,Rainwise IP-100,2013-09-04 04:31:00,
2013-09-03 22:36:00,74.9,57.0,25.79,ESE,112,2.6,8.0,54,0.00,,,0.00,Rainwise IP-100,2013-09-04 04:36:00,
2013-09-03 22:41:00,75.0,57.0,25.79,SSE,157,3.3,9.0,54,0.00,,,0.00,Rainwise IP-100,2013-09-04 04:41:00,
2013-09-03 22:46:00,75.1,57.0,25.80,ESE,112,8.4,11.0,53,0.00,,,0.00,Rainwise IP-100,2013-09-04 04:46:00,
2013-09-03 22:51:00,75.2,57.0,25.80,SSE,157,5.1,10.0,53,0.00,,,0.00,Rainwise IP-100,2013-09-04 04:51:00,
2013-09-03 22:56:00,75.2,57.0,25.80,SSE,157,4.9,10.0,53,0.00,,,0.00,Rainwise IP-100,2013-09-04 04:56:00,
2013-09-03 23:01:00,75.1,57.0,25.80,SSE,157,8.6,8.6,53,0.00,,,0.00,Rainwise IP-100,2013-09-04 05:01:00,
2013-09-03 23:06:00,75.1,57.0,25.80,SSE,157,10.7,11.0,53,0.00,,,0.00,Rainwise IP-100,2013-09-04 05:06:00,
2013-09-03 23:11:00,75.0,57.0,25.80,SSE,157,8.4,12.0,53,0.00,,,0.00,Rainwise IP-100,2013-09-04 05:11:00,
2013-09-03 23:31:00,74.8,56.0,25.80,SSE,157,7.5,13.0,53,0.00,,,0.00,Rainwise IP-100,2013-09-04 05:31:00,
2013-09-03 23:36:00,74.6,56.0,25.80,SSE,157,8.2,11.0,53,0.00,,,0.00,Rainwise IP-100,2013-09-04 05:36:00,
2013-09-03 23:41:00,74.5,56.0,25.80,ESE,112,7.7,12.0,53,0.00,,,0.00,Rainwise IP-100,2013-09-04 05:41:00,
2013-09-03 23:46:00,74.3,56.0,25.80,ESE,112,3.0,11.0,53,0.00,,,0.00,Rainwise IP-100,2013-09-04 05:46:00,
2013-09-03 23:51:00,74.2,56.0,25.80,SSE,157,5.4,11.0,54,0.00,,,0.00,Rainwise IP-100,2013-09-04 05:51:00,
2013-09-03 23:56:00,73.9,56.0,25.80,SSE,157,5.4,11.0,54,0.00,,,0.00,Rainwise IP-100,2013-09-04 05:56:00,